Weather History for EICK - October, 2012

Change the Weather History Date:

Tuesday, October 2, 2012

  Actual Average Record
Temperature  
Mean Temperature 50 °F -  
Max Temperature 55 °F 56 °F 66 °F (1997)
Min Temperature 44 °F 46 °F 41 °F (2008)
Degree Days  
Heating Degree Days 14    
Moisture  
Dew Point 48 °F    
Average Humidity 89    
Maximum Humidity 100    
Minimum Humidity 72    
Precipitation  
Precipitation 0.20 in 0.16 in - ()
Sea Level Pressure  
Sea Level Pressure 29.62 in    
Wind  
Wind Speed 13 mph ()    
Max Wind Speed 24 mph    
Max Gust Speed 38 mph    
Visibility 6.8 miles    
Events Rain    
Averages and records for this station are not official NWS values.
T = Trace of Precipitation, MM = Missing Value Source: Averaged Metar Reports

Daily Weather History Graph

Daily Weather History Graph

Search for Another Location

Airport or City:

Trip Planner

Search our weather history database for the weather conditions in past years. The results will help you decide how hot, cold, wet, or windy it might be!

Date:

Astronomy

Oct. 02, 2012 Rise Set
Actual Time 7:36 AM IST 7:08 PM IST
Civil Twilight 7:03 AM IST 7:41 PM IST
Nautical Twilight 6:24 AM IST 8:20 PM IST
Astronomical Twilight 5:44 AM IST 9:00 PM IST
Moon 7:48 PM IST (10/2) 10:14 AM IST (10/2)
Length of Visible Light 12h 38m
Length of Day
11h 31m
Waning Gibbous, 95% of the Moon is Illuminated
Oct 2
Waning Gibbous
Oct 8
Last Quarter
Oct 15
New
Oct 22
First Quarter
Oct 29
Full

Hourly Weather History & Observations

Time (IST) Temp. Windchill Dew Point Humidity Pressure Visibility Wind Dir Wind Speed Gust Speed Precip Events Conditions
12:00 AM 50.0 °F - 48.2 °F 94% 29.77 in 6.2 mi SW 10.4 mph - N/A   Mostly Cloudy
12:30 AM 50.0 °F - 48.2 °F 94% 29.77 in 6.2 mi SW 10.4 mph - N/A   Mostly Cloudy
1:00 AM 50 °F - 49 °F 93% 29.76 in 19 mi SW 13.4 mph - -   Partly Cloudy
1:00 AM 50.0 °F - 48.2 °F 94% 29.74 in 6.2 mi SW 12.7 mph - N/A   Mostly Cloudy
1:30 AM 50.0 °F - 48.2 °F 94% 29.74 in 6.2 mi SW 13.8 mph - N/A   Mostly Cloudy
2:00 AM 51.8 °F - 48.2 °F 88% 29.71 in 6.2 mi SW 16.1 mph - N/A   Scattered Clouds
2:30 AM 51.8 °F - 50.0 °F 94% 29.71 in 6.2 mi SW 15.0 mph - N/A   Mostly Cloudy
3:00 AM 50.0 °F - 48.2 °F 94% 29.71 in 6.2 mi SW 10.4 mph - N/A   Mostly Cloudy
3:30 AM 50.0 °F - 48.2 °F 94% 29.71 in 6.2 mi SW 10.4 mph - N/A   Scattered Clouds
4:00 AM 50.0 °F - 48.2 °F 94% 29.68 in 6.2 mi SW 15.0 mph - N/A   Scattered Clouds
4:30 AM 48.2 °F - 48.2 °F 100% 29.68 in 6.2 mi SW 12.7 mph - N/A   Scattered Clouds
5:00 AM 50.0 °F - 50.0 °F 100% 29.68 in 6.2 mi SW 11.5 mph - N/A Rain Light Rain Showers
5:30 AM 51.8 °F - 50.0 °F 94% 29.65 in 6.2 mi SW 15.0 mph - N/A   Mostly Cloudy
6:00 AM 50.0 °F - 48.2 °F 94% 29.65 in 6.2 mi SW 16.1 mph - N/A   Scattered Clouds
7:00 AM 51 °F - 50 °F 96% 29.66 in 9 mi SW 15.7 mph - - Rain Heavy Rain Showers
7:00 AM 51.8 °F - 50.0 °F 94% 29.65 in 6.2 mi SW 16.1 mph - N/A Rain Rain Showers
7:30 AM 51.8 °F - 50.0 °F 94% 29.65 in 6.2 mi SW 12.7 mph - N/A   Mostly Cloudy
8:00 AM 50.0 °F - 50.0 °F 100% 29.62 in 6.2 mi SW 11.5 mph - N/A Rain Light Rain Showers
8:30 AM 50.0 °F - 48.2 °F 94% 29.62 in 6.2 mi SW 13.8 mph - N/A Rain Light Rain Showers
9:00 AM 50.0 °F - 48.2 °F 94% 29.62 in 6.2 mi SW 12.7 mph - N/A   Scattered Clouds
9:30 AM 50.0 °F - 48.2 °F 94% 29.62 in 6.2 mi SSW 10.4 mph - N/A   Scattered Clouds
10:00 AM 51.8 °F - 50.0 °F 94% 29.62 in 6.2 mi SW 11.5 mph - N/A   Partly Cloudy
10:30 AM 53.6 °F - 50.0 °F 88% 29.62 in 6.2 mi SW 13.8 mph - N/A   Partly Cloudy
11:00 AM 53.6 °F - 50.0 °F 88% 29.62 in 6.2 mi SW 16.1 mph - N/A   Scattered Clouds
11:30 AM 53.6 °F - 50.0 °F 88% 29.59 in 6.2 mi SW 16.1 mph - N/A   Mostly Cloudy
12:00 PM 55.4 °F - 50.0 °F 82% 29.59 in 6.2 mi SW 15.0 mph - N/A   Mostly Cloudy
12:30 PM 55.4 °F - 51.8 °F 88% 29.56 in 6.2 mi SSW 16.1 mph - N/A   Mostly Cloudy
1:00 PM 55 °F - 52 °F 85% 29.57 in 19 mi SSW 15.7 mph - -   Partly Cloudy
1:00 PM 55.4 °F - 51.8 °F 88% 29.56 in 6.2 mi SSW 16.1 mph - N/A   Mostly Cloudy
1:30 PM 55.4 °F - 51.8 °F 88% 29.53 in 6.2 mi SSW 19.6 mph - N/A Rain Light Rain Showers
2:00 PM 53.6 °F - 51.8 °F 94% 29.53 in 6.2 mi SW 18.4 mph - N/A   Scattered Clouds
2:30 PM 53.6 °F - 51.8 °F 94% 29.50 in 6.2 mi SW 21.9 mph - N/A Rain Light Rain Showers
3:00 PM 53.6 °F - 51.8 °F 94% 29.53 in 6.2 mi WSW 17.3 mph - N/A   Partly Cloudy
3:30 PM 55.4 °F - 50.0 °F 82% 29.50 in 5.6 mi WSW 24.2 mph 38.0 mph N/A   Scattered Clouds
4:00 PM 51.8 °F - 48.2 °F 88% 29.53 in 6.2 mi WSW 19.6 mph - N/A   Scattered Clouds
4:30 PM 51.8 °F - 46.4 °F 82% 29.53 in 6.2 mi WSW 17.3 mph - N/A   Scattered Clouds
5:00 PM 53.6 °F - 48.2 °F 82% 29.53 in 6.2 mi WSW 16.1 mph - N/A   Partly Cloudy
5:30 PM 53.6 °F - 44.6 °F 72% 29.53 in 6.2 mi West 17.3 mph - N/A   Scattered Clouds
6:00 PM 51.8 °F - 44.6 °F 76% 29.53 in 6.2 mi WSW 19.6 mph 31.1 mph N/A   Scattered Clouds
6:30 PM 51.8 °F - 44.6 °F 76% 29.53 in 6.2 mi WSW 17.3 mph - N/A   Partly Cloudy
7:00 PM 50 °F - 44 °F 74% 29.58 in 28 mi WSW 15.7 mph - -   Partly Cloudy
7:00 PM 50.0 °F - 44.6 °F 82% 29.56 in 6.2 mi WSW 15.0 mph - N/A   Partly Cloudy
7:30 PM 48.2 °F - 44.6 °F 87% 29.56 in 6.2 mi WSW 12.7 mph - N/A   Partly Cloudy
8:00 PM 48.2 °F - 42.8 °F 82% 29.59 in 6.2 mi WSW 12.7 mph - N/A   Partly Cloudy
8:30 PM 46.4 °F 41.1 °F 42.8 °F 87% 29.59 in 6.2 mi WSW 11.5 mph - N/A   Partly Cloudy
9:00 PM 46.4 °F 41.5 °F 42.8 °F 87% 29.59 in 6.2 mi WSW 10.4 mph - N/A   Partly Cloudy
9:30 PM 46.4 °F 41.1 °F 42.8 °F 87% 29.59 in 6.2 mi WSW 11.5 mph - N/A   Partly Cloudy
10:00 PM 46.4 °F 41.1 °F 41.0 °F 81% 29.62 in 6.2 mi WSW 11.5 mph - N/A   Partly Cloudy
10:30 PM 46.4 °F 41.1 °F 41.0 °F 81% 29.62 in 6.2 mi WSW 11.5 mph - N/A   Partly Cloudy
11:00 PM 46.4 °F 40.7 °F 41.0 °F 81% 29.62 in 6.2 mi WSW 12.7 mph - N/A   Partly Cloudy
11:30 PM 44.6 °F 40.2 °F 41.0 °F 87% 29.62 in 6.2 mi WSW 8.1 mph - N/A   Partly Cloudy